Погода в Сосновом

Россия / Тульская область     54°49′28″N   37°26′38″E
темп.,
°C
ветер,
м/с
пор.,
м/с
влажн.,
%
обл.,
%
осадки,
мм/ч
давл.,
гПа
погр.,
м
15 мая, сб
сб1500:00+14вюв3697100 2.4 1010115
03:00+14юв349597 3.0 100981
06:00+15ююв37955 0.0 1007151
09:00+19ююз588438 0.4 1008421
12:00+21ююз6866100 0.6 10091552
15:00+20ююз69675 1.5 10091475
18:00+18ююз610745 0.4 1009972
21:00+14ю513885 0.6 1010406
16 мая, вс
вс1600:00+13ююз513945 0.0 1010383
03:00+12ююз410961 0.0 1012238
06:00+12ююз411910 0.0 1012333
09:00+16ююз697669 0.0 1013667
12:00+19ююз69683 0.9 10131350
15:00+20юз676016 1.2 10131862
18:00+19ююз47710 0.0 1013507
21:00+15ююз238454 0.0 101424
17 мая, пн
пн1700:00+13ю228698 0.0 101510
03:00+12вюв228797 0.0 101520
06:00+13в378864 0.0 1015145
09:00+19вюв587549 0.1 1014449
12:00+23вюв796632 0.0 1012943
15:00+25вюв696516 0.0 10111030
18:00+23вюв612738 0.0 1010659
21:00+19юв6178124 0.0 1010502
18 мая, вт
вт1800:00+17юв6178238 0.0 1008424
03:00+16юв5147912 0.0 1008337
06:00+15юв5138271 0.0 1007288
09:00+20ююв6127383 0.0 1007544
12:00+23ююв811665 0.1 10071266
15:00+23ююв7116794 0.4 10061570
18:00+19ю5982100 2.1 1007453
21:00+15ю388987 3.0 1007151
19 мая, ср
ср1900:00+15ююв379489 0.5 1006150
03:00+14ююв3995100 0.5 1005212
06:00+14юв4993100 0.0 1005264
09:00+17ю61085100 1.4 1004651
12:00+18ююз787686 0.6 10041195
15:00+18ююз7873100 1.6 10041250
18:00+15з61088100 1.9 1006799
21:00+12зюз49940 2.0 1008289